[[{"header":{"parameterUnit":"m.s-1","parameterCategory":1,"la1":30.2991,"la2":30.254,"lo1":-89.0895,"lo2":-89.0444,"dy":0.0017,"dx":0.0017,"nx":28,"ny":28,"refTime":"2025-07-27T03:00:00:Z","depth":0,"parameterNumber":2,"parameterNumberName":"U-component_of_WINDS"},"data":[0,0,0,0,0,0,0,0,0,0,0,0,0,0,0,0,0,0,0,0,0,0,0,0,0,0,0,0,0,0,0,0,0,0,0,0,0,0,0,0,0,0,0,0,0,0,0,0,0,0,0,0,0,0,0,0,0,0,2.337,2.3371,0,2.347,2.3471,2.3472,2.3442,2.344,2.3438,2.3436,2.3542,2.3547,2.3552,0,0,0,0,0,0,0,0,0,0,0,0,0,2.3159,2.3163,2.337,2.3371,2.3372,2.3469,2.3471,2.3472,2.3442,2.344,2.3437,2.3435,2.3541,2.3547,2.3552,0,0,0,0,0,0,0,0,0,0,0,0,0,2.3254,2.3164,2.337,2.3369,2.337,2.3469,2.3471,2.3473,2.3443,2.3439,2.3436,2.3433,2.3539,2.3546,2.3553,2.3661,0,0,2.3575,2.3578,0,0,0,0,0,0,0,0,2.3249,2.3262,2.3368,2.3369,2.337,2.344,2.3436,2.3536,2.3443,2.3415,2.3435,2.3432,2.3511,2.3521,2.3546,2.3666,2.367,2.3576,2.358,2.3583,2.3585,0,0,0,0,0,0,0,2.3242,2.3257,2.341,2.3369,2.3371,2.3365,2.3375,2.3454,2.348,2.3417,2.3415,2.3427,2.3511,2.3539,2.3549,2.3672,2.3576,2.3582,2.3586,2.3589,2.3886,2.389,0,0,0,0,0,0,2.3234,2.3252,2.3406,2.3413,2.33,2.3372,2.3383,2.3421,2.3479,2.3485,2.343,2.3426,2.3529,2.354,2.3552,2.3683,2.3583,2.359,2.3594,2.3883,2.3887,2.3891,0,0,0,0,0,0,2.3229,2.3248,2.3402,2.3332,2.3351,2.3379,2.3422,2.3425,2.3452,2.3488,2.3493,2.3454,2.3527,2.3542,2.3634,2.3686,2.3593,2.36,2.3879,2.3884,2.3889,2.3944,0,0,0,0,0,0,2.3223,2.3246,2.3286,2.3333,2.3355,2.3481,2.3425,2.3429,2.3464,2.346,2.3512,2.3517,2.3525,2.3623,2.3641,2.3694,2.3605,2.3874,2.3881,2.3887,2.3938,2.3951,2.3962,0,0,0,0,0,2.3216,2.3299,2.3288,2.3307,2.3405,2.3484,2.3497,2.3503,2.3469,2.351,2.3533,2.3516,2.3677,2.3633,2.3653,2.3709,2.3871,2.3879,2.3887,2.3933,2.3948,2.3962,0,0,0,0,0,0,2.3259,2.3305,2.3294,2.3393,2.3435,2.3479,2.353,2.3519,2.3572,2.3566,2.3572,2.3585,2.3679,2.3703,2.3653,2.3817,2.3769,2.3782,2.3797,2.3813,2.3824,2.3817,2.3611,0,0,0,0,0,2.3279,2.3338,2.3376,2.346,2.3481,2.3503,2.3537,2.3538,2.3582,2.36,2.363,2.3674,2.3735,2.3775,2.3833,2.3941,2.3953,2.399,2.4002,2.4012,2.4022,2.4083,2.41,2.3917,2.3917,2.3917,0,0,2.3323,2.3356,2.3392,2.347,2.3502,2.3564,2.3517,2.3585,2.3632,2.3611,2.3699,2.3723,2.3773,2.3874,2.392,2.3897,2.4075,2.4022,2.4029,2.4035,2.4093,2.411,2.4125,2.3923,2.3922,2.3921,0,0,2.3435,2.3465,2.3539,2.3572,2.3621,2.3635,2.3653,2.3699,2.3713,2.3802,2.3787,2.3844,2.3949,2.3985,2.4018,2.4145,2.4132,2.4164,2.4227,2.4286,2.43,2.4313,2.4359,2.4375,2.4175,2.4175,2.4175,0,2.3484,2.3575,2.3579,2.3648,2.3683,2.3666,2.3742,2.3774,2.3841,2.3866,2.3839,2.3971,2.4003,2.4113,2.4144,2.4171,2.4193,2.4158,2.4297,2.431,2.4322,2.4366,2.4384,2.4178,2.4178,2.4178,2.4177,0,2.3634,2.3698,2.3752,2.3815,2.3856,2.3929,2.3945,2.3987,2.3985,2.4002,2.4093,2.4132,2.4198,2.4224,2.4223,2.4334,2.4319,2.4295,2.4247,2.4343,2.4385,2.4402,2.4184,2.4182,2.4181,2.418,0,0,2.3774,2.3839,2.3859,2.3888,2.3941,2.3992,2.4064,2.4127,2.4164,2.4211,2.4273,2.4362,2.434,2.4377,2.438,2.4432,2.4532,2.4402,2.4403,2.4425,2.4658,2.4676,2.4695,2.4523,2.4526,2.4529,2.4654,0,2.3891,2.4016,2.4023,2.4138,2.4198,2.4183,2.4247,2.4287,2.4306,2.4361,2.4382,2.4445,2.4411,2.4434,2.4484,2.4509,2.4579,2.45,2.4582,2.4585,2.457,2.4717,2.4736,2.4851,2.467,2.4673,2.4675,0,2.4043,2.4094,2.4215,2.4261,2.4286,2.4343,2.4402,2.4455,2.4501,2.4511,2.4553,2.4549,2.4626,2.4575,2.4682,2.4628,2.4662,2.468,2.4685,2.4693,2.4636,2.4729,2.4888,2.4906,2.47,2.4698,2.4697,0,2.4134,2.4233,2.4318,2.4343,2.4399,2.4439,2.4465,2.4508,2.4546,2.4599,2.4624,2.4685,2.4719,2.4767,2.4781,2.4743,2.4887,2.4838,2.4899,2.4899,2.493,2.4928,2.5097,2.4952,2.4952,2.4951,2.4951,0,2.4264,2.4339,2.436,2.4412,2.4496,2.4504,2.4587,2.461,2.4649,2.4707,2.4699,2.4754,2.4768,2.4827,2.4838,2.4925,2.494,2.4952,2.4954,2.4953,2.4951,2.4975,2.4967,2.4956,2.4955,2.4954,2.4953,0,2.438,2.4397,2.4489,2.4534,2.4547,2.4607,2.4647,2.4698,2.4716,2.479,2.4807,2.4836,2.4904,2.4922,2.5005,2.5012,2.5115,2.5109,2.5098,2.5098,2.5158,2.5153,2.5349,2.5376,2.5213,2.5215,2.5216,0,2.4461,2.4518,2.457,2.4607,2.4634,2.4695,2.4734,2.4744,2.4785,2.4843,2.4888,2.4955,2.5009,2.512,2.5149,2.5212,2.5208,2.5273,2.5217,2.5215,2.521,2.5206,2.5212,2.5283,2.5285,2.5286,2.5287,0,2.4604,2.461,2.4665,2.4725,2.4771,2.4818,2.4863,2.4895,2.4912,2.4959,2.5028,2.507,2.5154,2.5221,2.5285,2.5313,2.5304,2.5305,2.5322,2.5321,2.5312,2.5318,2.5127,2.53,2.5299,2.5298,2.5297,2.5297,2.4706,2.4756,2.48,2.4863,2.4898,2.4941,2.4992,2.5016,2.5073,2.5141,2.5144,2.5219,2.5267,2.5351,2.5383,2.5443,2.5424,2.5449,2.5456,2.5462,2.5467,2.5303,2.5455,2.5455,2.5455,2.5454,2.5454,0,2.4848,2.4876,2.4934,2.4997,2.5047,2.5033,2.5083,2.5126,2.5192,2.5236,2.5289,2.537,2.5435,2.5469,2.5535,2.5577,2.5574,2.5594,2.5591,2.5597,2.548,2.5459,2.5594,2.5594,2.5594,2.5594,2.5594,2.5594,2.4929,2.5013,2.5025,2.5128,2.5156,2.5228,2.5258,2.5299,2.5334,2.5423,2.5477,2.5499,2.554,2.5608,2.5668,2.5677,2.5702,2.5723,2.573,2.562,2.5605,2.5592,2.5571,2.5729,2.5729,2.5842,2.5843,2.5843]},{"header":{"parameterUnit":"m.s-1","parameterCategory":1,"la1":30.2991,"la2":30.254,"lo1":-89.0895,"lo2":-89.0444,"dy":0.0017,"dx":0.0017,"nx":28,"ny":28,"refTime":"2025-07-27T03:00:00:Z","depth":0,"parameterNumber":3,"parameterNumberName":"V-component_of_WINDS"},"data":[0,0,0,0,0,0,0,0,0,0,0,0,0,0,0,0,0,0,0,0,0,0,0,0,0,0,0,0,0,0,0,0,0,0,0,0,0,0,0,0,0,0,0,0,0,0,0,0,0,0,0,0,0,0,0,0,0,0,2.2459,2.2459,0,2.2506,2.2507,2.2507,2.2432,2.2429,2.2427,2.2424,2.2474,2.2477,2.2481,0,0,0,0,0,0,0,0,0,0,0,0,0,2.2302,2.2306,2.2459,2.246,2.246,2.2506,2.2507,2.2508,2.2432,2.2429,2.2426,2.2423,2.2473,2.2477,2.2482,0,0,0,0,0,0,0,0,0,0,0,0,0,2.2362,2.2307,2.2459,2.2428,2.2426,2.2506,2.2507,2.2508,2.2433,2.2429,2.2425,2.2422,2.2471,2.2477,2.2482,2.2595,0,0,2.2499,2.2502,0,0,0,0,0,0,0,0,2.2359,2.2368,2.2432,2.243,2.2428,2.2459,2.247,2.2537,2.2434,2.243,2.2424,2.242,2.2472,2.2477,2.2495,2.2597,2.2599,2.25,2.2503,2.2506,2.2507,0,0,0,0,0,0,0,2.2355,2.2366,2.2478,2.2433,2.2431,2.2412,2.2416,2.2482,2.2473,2.243,2.2425,2.2432,2.247,2.249,2.2496,2.26,2.25,2.2505,2.2508,2.251,2.2792,2.2796,0,0,0,0,0,0,2.2354,2.2363,2.2476,2.2479,2.2383,2.2418,2.2422,2.2453,2.2472,2.2471,2.2435,2.2428,2.2482,2.2489,2.2497,2.2626,2.2506,2.2511,2.2514,2.2788,2.2793,2.2798,0,0,0,0,0,0,2.2351,2.2365,2.2474,2.2419,2.2432,2.2424,2.246,2.2456,2.2475,2.2475,2.2473,2.2456,2.2479,2.2489,2.257,2.2627,2.2513,2.2518,2.2783,2.279,2.2795,2.2888,0,0,0,0,0,0,2.2347,2.2365,2.2408,2.2421,2.2435,2.2547,2.2463,2.246,2.2485,2.2476,2.2495,2.2494,2.2477,2.2562,2.2576,2.2633,2.2523,2.2778,2.2786,2.2793,2.288,2.2897,2.2911,0,0,0,0,0,2.2342,2.2433,2.241,2.2425,2.2489,2.2551,2.2559,2.2537,2.249,2.2533,2.2532,2.2493,2.2619,2.2571,2.2586,2.2645,2.2774,2.2784,2.2793,2.2873,2.2894,2.2911,0,0,0,0,0,0,2.2429,2.2435,2.2409,2.2508,2.2529,2.2538,2.2591,2.256,2.2595,2.2586,2.2557,2.2562,2.2648,2.2655,2.2601,2.2753,2.2689,2.2702,2.2745,2.2764,2.278,2.2775,2.2528,0,0,0,0,0,2.2459,2.2509,2.2511,2.2598,2.261,2.2599,2.2625,2.2606,2.2627,2.2636,2.2641,2.2663,2.2707,2.2737,2.2778,2.2882,2.2882,2.293,2.2945,2.2958,2.2968,2.302,2.3039,2.2828,2.2828,2.2828,0,0,2.2523,2.2532,2.2565,2.2616,2.263,2.268,2.2607,2.2665,2.2702,2.2645,2.272,2.2725,2.2747,2.2839,2.288,2.2847,2.3027,2.297,2.298,2.2983,2.3031,2.3051,2.3069,2.2834,2.2833,2.2832,0,0,2.2663,2.2677,2.2748,2.2764,2.2785,2.2777,2.2794,2.2807,2.2808,2.2883,2.284,2.2884,2.2961,2.2977,2.2996,2.314,2.3104,2.3155,2.3235,2.3285,2.3302,2.3316,2.3364,2.3382,2.3166,2.3166,2.3166,0,2.274,2.2814,2.279,2.2849,2.2871,2.2821,2.2891,2.2908,2.2942,2.2958,2.2922,2.3015,2.3027,2.312,2.3155,2.3173,2.3189,2.3151,2.3302,2.3316,2.3329,2.3374,2.3392,2.3171,2.3171,2.317,2.317,0,2.2905,2.2957,2.3012,2.3044,2.3073,2.3138,2.3122,2.3154,2.3133,2.3128,2.3203,2.3216,2.3256,2.3277,2.3258,2.3366,2.3345,2.3306,2.324,2.3355,2.3396,2.3414,2.3179,2.3177,2.3176,2.3174,0,0,2.3101,2.3117,2.3137,2.3149,2.3169,2.3208,2.3271,2.3309,2.3335,2.3361,2.341,2.3475,2.3438,2.3459,2.3441,2.3486,2.3594,2.344,2.344,2.3465,2.3709,2.3736,2.3756,2.3572,2.3575,2.3578,2.3706,0,2.3238,2.3343,2.3321,2.3424,2.347,2.3423,2.3476,2.3493,2.349,2.3528,2.3525,2.357,2.352,2.3532,2.3574,2.3572,2.3642,2.3563,2.3615,2.3617,2.3607,2.3779,2.3808,2.3928,2.3723,2.3725,2.3728,0,2.3411,2.344,2.3547,2.3555,2.3574,2.3623,2.3654,2.3692,2.371,2.3704,2.3726,2.3699,2.3759,2.3695,2.3775,2.3721,2.3742,2.3744,2.3748,2.3749,2.3677,2.3781,2.3967,2.3983,2.3754,2.3752,2.375,0,2.3538,2.3605,2.3676,2.3689,2.3701,2.3736,2.3743,2.3757,2.378,2.3808,2.3822,2.3858,2.3876,2.3904,2.3886,2.3842,2.3968,2.3903,2.3963,2.3963,2.3989,2.3987,2.4177,2.4009,2.4008,2.4008,2.4008,0,2.369,2.3757,2.3732,2.3776,2.3848,2.3822,2.3894,2.3896,2.3908,2.395,2.3913,2.3953,2.3929,2.3967,2.3954,2.402,2.403,2.4025,2.402,2.4027,2.4027,2.4037,2.4026,2.4013,2.4012,2.4011,2.401,0,2.3843,2.383,2.3903,2.3909,2.3912,2.3964,2.3968,2.4008,2.4002,2.4055,2.4067,2.4057,2.4099,2.4085,2.4131,2.4122,2.4205,2.4191,2.4198,2.4193,2.4252,2.4245,2.4452,2.4476,2.4296,2.4298,2.43,0,2.3939,2.3988,2.3998,2.4023,2.4032,2.4073,2.4096,2.4073,2.4098,2.412,2.4157,2.4196,2.4225,2.4295,2.4292,2.4326,2.431,2.4381,2.4315,2.4319,2.4306,2.4302,2.4305,2.4393,2.4395,2.4396,2.4398,0,2.411,2.41,2.4134,2.4165,2.4192,2.4216,2.4237,2.4259,2.4237,2.4267,2.4309,2.4332,2.4378,2.4416,2.4446,2.4453,2.4421,2.4419,2.4433,2.4438,2.4438,2.4435,2.4229,2.4413,2.4412,2.4411,2.441,2.4409,2.4234,2.4274,2.4286,2.4324,2.4336,2.4356,2.4392,2.4389,2.4424,2.4458,2.4443,2.4491,2.4504,2.4542,2.4552,2.4589,2.4561,2.4584,2.4589,2.4594,2.4599,2.4436,2.4595,2.4594,2.4594,2.4594,2.4593,0,2.4399,2.4404,2.4439,2.4467,2.4496,2.4464,2.4484,2.4511,2.4553,2.4568,2.4597,2.4644,2.468,2.468,2.4713,2.4742,2.4727,2.4751,2.4746,2.4747,2.4624,2.4606,2.4761,2.4761,2.4761,2.4761,2.4761,2.4761,2.4488,2.4552,2.4543,2.4613,2.4617,2.4663,2.4676,2.4693,2.4705,2.4758,2.4787,2.4786,2.4794,2.4827,2.4858,2.4857,2.4869,2.4897,2.489,2.4774,2.4757,2.4741,2.4723,2.4901,2.4901,2.501,2.5011,2.5012]}]]